Location: Buckeye Ditch
(40.9104°N, 122.9517°W)
Time: 13:43:16
(UTC+00:00)

Vanguard 3 - Visible Passes

Search period start: 18 May 2025 00:00
Search period end: 28 May 2025 00:00
Orbit: 508 x 3216 km, 33.3° (Epoch: 17 May)

Date Brightness Start Highest point End Pass type
(mag) Time Alt. Az. Time Alt. Az. Time Alt. Az.
18 May 8.9 11:39:45 11° SSW 11:43:27 17° SSE 11:46:32 10° SE visible
19 May 9.5 10:23:45 12° SSE 10:23:45 12° SSE 10:25:51 10° SE visible
20 May 8.9 11:11:42 17° SSW 11:14:31 21° SSE 11:18:28 10° ESE visible
21 May 9.5 09:55:36 16° SSE 09:55:36 16° SSE 09:58:19 10° ESE visible
21 May 8.3 11:59:35 10° SW 12:05:36 29° S 12:09:42 10° ESE visible
22 May 8.9 10:43:25 23° S 10:45:29 26° SSE 10:50:17 10° ESE visible
23 May 9.5 09:27:11 19° SE 09:27:11 19° SE 09:30:19 10° ESE visible
23 May 8.3 11:31:10 16° SW 11:36:38 34° S 11:41:21 10° ESE visible
24 May 8.9 10:14:51 29° S 10:16:20 31° SSE 10:21:58 10° ESE visible
25 May 9.6 08:58:28 22° SE 08:58:28 22° SE 09:02:04 10° ESE visible
25 May 8.4 11:02:26 21° SW 11:07:35 39° S 11:12:56 10° ESE visible
26 May 8.9 09:45:56 34° S 09:47:03 35° SSE 09:53:33 10° ESE visible
26 May 8.0 11:50:30 10° WSW 11:58:40 44° S 12:03:36 10° ESE visible
27 May 9.6 08:29:20 25° SE 08:29:20 25° SE 08:33:37 10° ESE visible
27 May 8.5 10:33:17 26° SW 10:38:22 44° S 10:44:28 10° ESE visible
